Theta_e
342 345 353 355 354 354 353 352 351 351 353 353 353 354 354 354 354 354 354 354 354 354 354 355 354 354 354 354 354 354 354 354 354 353 352 352 352 351 350 350 350 350 349 350 350 351 350 350 350 350 349 349 348 347 346 344 344 346 346 347 348 348 348 348 348 349 349 349 348 348 347 348 348 347 346 345 345 345 344 344 345 342 343 345 344
342 348 354 358 354 354 353 351 351 351 353 353 353 354 354 354 354 354 354 354 354 354 354 354 354 354 354 354 354 354 354 354 353 353 352 352 351 351 351 350 349 349 349 349 348 348 349 350 349 348 349 348 348 348 346 344 344 345 346 346 345 346 346 347 348 348 348 348 348 346 345 346 346 346 345 344 343 343 342 343 345 344 343 344 343
346 349 355 357 354 354 352 352 351 351 352 352 353 353 354 354 354 354 354 354 354 355 354 354 354 354 354 354 354 354 354 354 353 353 352 351 351 350 350 349 348 348 348 348 348 347 347 347 346 347 348 348 348 348 346 345 344 343 343 345 346 346 346 345 345 345 346 346 345 345 346 346 345 345 344 344 343 343 342 342 343 344 343 341 342
346 350 353 357 354 354 353 352 350 350 351 353 353 354 354 354 354 354 354 354 354 354 354 354 355 355 354 354 354 354 354 354 353 353 352 352 351 350 349 347 347 347 347 345 344 346 347 347 347 347 347 347 348 348 348 347 346 345 344 344 344 344 344 344 343 343 342 342 342 347 346 347 345 343 343 344 343 342 342 342 341 341 340 341 340
347 349 353 357 356 354 353 352 352 350 350 352 353 354 354 354 354 354 354 354 354 354 354 354 354 354 354 354 354 354 353 353 353 352 351 350 350 349 348 348 347 346 346 346 346 344 344 346 347 347 346 347 348 348 347 346 346 346 346 346 345 344 344 344 344 343 341 338 343 346 339 340 346 343 344 343 341 340 340 340 340 340 339 338 338
347 349 353 353 353 354 353 352 351 350 350 351 353 353 354 354 354 354 355 354 354 354 354 354 354 354 354 354 353 353 353 352 352 352 350 349 350 349 349 349 345 344 343 342 341 342 345 346 347 347 347 347 348 347 346 345 345 344 345 345 345 344 343 343 343 343 341 340 339 339 336 340 342 344 343 342 340 338 340 340 340 341 340 338 338
347 350 352 351 352 352 353 352 350 350 351 351 353 354 354 355 354 354 354 354 354 354 354 354 354 354 354 353 353 352 352 352 352 351 350 350 350 350 348 346 346 345 345 344 344 345 346 347 347 347 348 348 347 346 345 344 344 344 344 345 344 345 343 343 343 343 344 345 340 338 337 337 341 342 342 342 342 340 340 340 337 337 337 336 336
350 350 351 350 353 353 353 351 350 350 351 351 353 354 354 354 354 354 354 354 354 354 354 354 354 354 353 353 352 352 352 352 351 350 350 349 349 348 348 348 347 346 344 344 345 346 346 347 348 348 347 346 346 346 346 345 344 344 344 343 343 344 345 342 342 343 344 342 339 341 339 339 340 340 341 342 341 338 339 338 338 337 337 337 336
347 349 350 350 351 352 353 351 351 350 351 351 353 354 354 354 354 354 354 354 354 354 354 354 353 353 353 353 352 352 352 351 350 349 348 348 349 349 347 345 344 346 346 346 347 347 347 347 348 348 348 348 347 346 345 345 345 345 345 344 346 343 345 344 344 345 347 340 340 341 343 340 339 340 339 341 341 339 338 340 337 340 338 337 338
347 351 351 351 352 353 352 352 351 351 351 351 353 354 354 353 353 354 354 354 353 354 353 353 353 354 353 352 352 352 351 350 349 348 348 348 348 347 347 346 346 346 346 346 346 347 347 347 347 348 348 347 345 345 346 346 347 347 347 346 346 347 347 346 345 345 347 342 339 341 340 346 339 337 339 339 339 338 339 339 342 342 340 338 337
349 350 351 350 353 352 352 352 351 352 351 351 353 354 354 354 354 354 353 353 353 353 353 353 353 353 352 352 351 351 351 350 350 350 349 348 347 346 346 346 346 346 346 346 346 347 347 347 347 347 346 346 346 346 346 347 348 348 348 348 345 344 346 346 347 347 344 339 342 342 338 341 346 345 339 339 338 339 339 339 340 341 339 338 338
348 351 351 352 355 352 352 351 352 352 352 353 353 354 354 354 354 354 354 353 353 353 353 353 353 352 351 351 352 352 351 351 350 350 349 347 347 346 346 345 344 344 345 345 346 346 347 347 347 347 347 347 347 346 347 347 348 349 348 346 345 343 344 347 347 342 344 340 340 346 342 343 344 342 340 340 340 340 340 341 342 341 339 338 337
347 348 351 355 354 352 352 351 351 352 352 353 353 354 354 354 354 354 354 354 354 353 353 353 352 353 352 352 351 351 350 350 350 349 348 348 347 347 347 346 345 345 345 345 345 346 346 347 347 347 348 347 348 346 346 347 347 349 348 346 343 344 344 348 345 341 341 341 342 345 343 346 347 342 342 342 342 342 342 341 341 341 340 338 337
345 348 349 353 352 353 352 351 351 352 352 353 354 353 353 354 354 354 354 354 354 353 353 353 352 352 352 351 351 350 349 349 348 348 347 346 345 346 345 345 345 345 345 345 344 345 346 347 347 348 349 349 348 347 347 346 347 347 349 346 344 343 345 348 348 342 341 341 344 342 343 346 349 343 342 343 342 342 341 341 341 341 340 339 338
345 348 349 349 352 352 353 351 351 352 352 353 353 354 354 354 354 354 354 354 353 353 353 352 352 351 351 350 350 349 348 347 346 346 346 345 345 345 344 345 345 345 345 345 345 346 347 347 347 347 347 347 347 348 347 347 346 346 347 347 344 344 345 344 340 341 341 340 342 341 341 345 345 345 343 344 343 342 342 342 342 341 340 339 339
348 349 349 349 350 350 352 353 351 351 352 353 353 354 354 354 354 354 354 353 353 352 352 352 351 350 350 349 348 347 346 346 345 345 344 344 344 343 343 345 345 345 346 346 346 347 347 348 348 348 347 346 348 347 348 347 347 346 346 347 346 344 345 345 342 340 341 343 343 343 343 345 344 343 345 344 344 344 343 343 342 342 340 340 340
349 351 349 348 348 349 348 351 350 351 352 354 354 354 354 354 354 354 353 352 352 351 351 350 350 349 348 348 346 345 345 344 344 344 343 343 342 342 343 344 345 345 345 345 346 346 346 347 347 348 347 346 347 347 347 347 346 346 347 346 346 345 344 346 344 341 340 340 339 341 344 345 344 344 344 345 345 345 344 344 343 343 341 340 339
349 349 348 348 346 346 348 348 350 352 351 355 354 354 354 353 353 353 352 352 352 350 350 349 349 348 346 346 345 343 342 341 340 340 340 340 340 341 342 344 344 345 345 345 345 346 345 346 347 346 346 346 345 343 344 343 344 346 346 347 345 345 345 347 347 341 341 342 341 343 344 350 344 344 344 345 346 345 345 344 344 343 343 341 340
348 347 348 348 346 346 346 348 351 347 349 353 355 356 353 353 352 352 351 351 351 350 349 348 348 347 346 345 343 342 341 341 340 340 339 339 340 340 341 343 343 343 344 344 345 346 345 345 345 346 345 345 344 342 341 341 341 343 348 348 348 344 345 347 343 339 340 344 343 343 347 345 348 345 345 345 346 347 346 345 344 344 343 342 341
347 348 347 347 347 344 346 346 348 349 351 351 352 355 353 352 352 351 351 351 350 349 348 347 347 346 344 343 342 342 342 342 340 340 340 339 339 343 342 342 342 343 344 345 345 345 345 345 345 344 345 344 343 342 339 340 339 343 346 348 348 346 345 346 340 340 339 339 342 344 349 347 346 345 344 345 346 347 347 345 344 344 343 342 342
345 346 347 346 346 346 346 347 347 346 349 352 353 354 353 353 352 351 351 351 350 349 348 346 345 344 344 343 344 346 347 345 346 344 340 344 340 340 341 342 342 343 343 345 345 345 345 344 343 344 343 342 344 342 341 340 341 343 345 344 348 348 345 342 342 340 341 340 342 341 348 350 346 345 344 345 346 347 347 347 345 344 344 343 343
342 344 345 345 346 347 347 346 347 346 348 351 352 353 354 352 353 353 352 351 349 348 349 349 346 347 343 345 346 344 344 345 345 343 343 341 342 340 341 342 342 342 344 343 343 341 341 342 342 344 343 344 345 349 347 344 343 341 342 345 346 344 343 343 343 340 339 341 342 348 349 348 346 346 346 345 346 347 347 347 346 344 343 343 343
340 341 342 343 345 346 347 345 346 347 349 352 351 352 353 353 351 351 350 348 349 350 347 347 348 345 345 344 345 345 345 345 347 345 345 343 343 341 342 342 342 344 343 342 341 340 341 344 343 345 346 345 349 340 340 340 346 346 346 347 344 343 343 343 342 342 340 341 341 347 349 346 345 346 347 347 347 347 347 347 347 343 341 341 343
340 341 341 344 343 345 347 348 347 348 348 349 351 352 353 352 351 350 351 350 350 348 347 346 346 346 344 345 344 346 346 349 346 345 345 344 343 343 343 342 342 342 341 344 336 342 342 342 344 347 348 348 341 338 337 338 339 343 344 341 339 340 341 341 338 341 344 341 341 341 343 344 344 346 346 347 348 348 348 347 345 344 342 341 342
342 342 342 342 344 345 347 347 348 348 348 347 348 350 352 350 351 350 350 349 348 346 346 348 348 347 345 345 344 346 346 346 347 348 345 344 343 339 343 342 341 340 341 343 343 342 347 344 347 348 342 341 341 344 343 343 344 344 345 344 343 344 342 343 342 343 345 346 348 342 340 342 343 344 346 347 348 348 348 343 343 345 342 341 342
343 341 340 341 343 344 346 346 347 347 348 348 348 349 351 349 349 349 349 348 346 344 345 347 347 348 346 346 347 347 347 348 349 347 346 346 343 340 339 340 340 339 341 344 343 345 344 344 344 344 345 347 346 349 347 346 344 345 344 346 346 346 344 343 343 345 347 347 349 344 341 342 343 343 345 347 348 348 347 343 343 345 344 341 341
341 341 341 341 343 345 346 346 344 346 348 347 347 350 350 350 350 349 347 346 345 344 344 345 347 348 347 349 347 345 346 346 347 348 347 347 345 342 339 341 343 342 347 346 348 349 348 348 348 350 349 348 347 347 345 345 346 341 341 341 343 343 343 343 342 342 344 344 346 343 343 343 342 343 345 346 347 347 347 344 343 344 344 342 343
341 342 341 343 343 344 345 346 344 345 347 346 348 348 349 350 349 349 348 345 344 344 344 347 348 347 349 349 349 347 346 346 347 348 347 348 347 348 347 345 348 348 351 351 350 349 348 348 351 349 345 345 342 344 342 340 341 343 340 340 340 341 342 341 343 344 344 345 345 347 343 343 343 344 345 345 346 347 347 345 344 344 344 343 342
341 342 341 342 343 345 346 344 343 344 346 347 347 347 348 350 349 347 346 345 345 344 346 348 347 347 348 348 349 349 346 347 346 346 348 347 348 349 347 346 350 349 352 350 351 350 350 348 348 344 345 343 342 343 341 341 343 342 340 338 338 339 341 342 343 342 342 343 345 347 344 343 343 343 344 345 346 347 346 345 344 343 343 343 342
342 342 342 343 343 345 345 343 343 342 344 347 346 346 348 347 348 347 347 347 346 347 348 346 347 345 346 348 347 347 346 344 347 346 347 347 348 350 349 350 350 350 351 352 352 350 347 345 344 342 340 343 342 343 342 340 338 338 338 338 338 340 342 342 343 342 344 345 349 348 344 342 342 341 340 342 344 347 346 345 344 344 342 342 342
342 342 342 341 343 344 343 343 343 344 346 344 346 347 348 347 347 347 347 346 346 346 347 346 346 347 346 348 347 347 347 347 347 346 348 346 348 348 349 351 350 350 353 352 351 349 347 344 344 344 344 344 342 342 341 339 337 336 339 338 340 342 342 343 344 345 345 345 348 348 344 341 339 338 338 338 340 342 344 344 344 343 343 342 342
341 341 342 343 342 342 342 344 344 344 347 345 347 347 347 347 348 347 346 347 348 346 344 346 346 347 348 347 348 347 347 348 348 348 348 346 347 346 349 350 350 351 352 351 351 349 346 344 347 348 349 346 342 341 341 338 339 337 339 337 340 340 339 341 342 344 346 347 347 349 347 341 338 337 336 336 337 338 340 341 342 342 342 342 342
341 343 342 342 341 342 341 343 344 347 347 346 345 347 347 347 347 347 347 347 347 345 345 346 347 348 349 347 347 347 348 348 349 349 347 345 346 347 349 351 352 353 353 351 348 348 348 346 348 348 344 343 341 340 337 339 337 338 339 336 339 337 340 340 342 344 344 344 343 344 344 345 344 337 336 336 335 337 336 336 337 338 339 340 340
340 342 343 341 341 341 342 342 343 345 346 346 346 346 347 346 347 347 347 347 345 343 344 346 347 346 347 347 347 347 347 348 348 349 348 347 348 348 350 350 351 354 352 351 347 347 347 347 345 343 341 340 338 339 336 336 334 335 337 337 338 341 339 340 340 342 341 341 341 340 338 339 339 341 339 334 333 332 331 330 330 331 333 334 336
341 341 341 341 341 340 342 342 344 344 346 346 346 345 348 346 346 346 346 346 345 345 345 347 346 346 346 346 347 347 348 348 349 349 349 347 348 350 350 350 352 352 349 349 349 349 348 344 342 342 342 339 337 337 336 338 338 336 337 340 337 336 341 339 339 340 339 339 335 332 332 332 333 335 336 338 332 329 327 326 325 325 326 328 330
343 342 340 341 339 340 342 342 345 344 345 346 346 347 346 348 347 345 347 347 344 346 346 346 347 346 345 346 348 348 349 349 349 349 348 350 349 350 350 351 350 351 350 351 350 347 346 343 343 344 340 337 338 337 338 337 338 337 339 339 340 339 339 338 338 336 337 336 333 330 328 327 329 330 332 332 336 330 325 324 323 322 323 323 325
343 341 340 340 340 340 340 342 343 343 345 345 346 347 347 347 347 346 347 347 345 346 347 345 345 347 346 343 348 349 349 349 349 349 351 352 349 350 349 351 351 351 349 348 346 345 345 341 342 342 343 338 336 336 337 336 335 337 339 340 339 339 339 338 337 336 336 333 332 329 327 324 325 326 329 329 332 332 327 322 322 321 320 320 321
343 343 341 340 340 340 340 341 341 344 344 344 346 345 347 345 346 346 347 345 346 345 345 345 347 345 345 345 347 349 352 351 352 352 353 351 350 349 349 349 351 350 347 347 345 344 343 343 340 340 339 338 333 335 332 331 332 336 338 337 337 338 336 337 336 332 331 331 330 328 325 323 322 324 326 327 327 329 326 322 320 320 319 318 318
342 342 341 340 340 339 339 340 341 344 344 345 346 346 347 346 347 345 345 344 345 345 345 345 348 347 346 347 347 352 351 352 352 352 352 349 348 347 347 348 349 346 346 342 341 341 342 341 340 339 340 338 333 334 332 331 334 335 336 335 335 337 337 336 335 330 328 327 325 324 323 320 320 322 325 323 321 323 323 321 318 319 318 317 317
342 342 341 340 339 340 341 340 340 342 344 344 343 342 343 342 340 342 342 342 343 343 346 345 348 345 347 347 348 351 348 350 350 351 351 349 347 347 347 347 345 346 342 341 339 339 339 338 338 337 338 336 333 331 330 332 336 336 334 336 336 335 333 332 332 330 326 323 322 321 318 318 318 320 322 322 319 318 319 320 318 316 317 316 316
341 341 340 341 340 338 338 338 339 341 341 339 340 340 340 340 341 339 339 342 342 344 344 346 346 345 346 346 347 348 350 350 349 349 349 345 345 345 345 344 345 342 341 341 340 339 339 339 336 337 334 333 330 330 330 335 331 332 333 333 334 334 332 331 329 327 323 317 316 318 317 317 318 318 320 320 317 316 316 317 317 317 317 316 317
339 340 340 340 340 340 339 339 339 340 340 340 340 340 342 340 339 339 341 341 341 340 343 346 347 345 346 345 346 347 347 348 348 349 347 346 344 342 342 341 341 340 340 339 339 337 338 337 337 336 332 329 328 328 329 332 324 321 327 328 327 330 333 331 327 325 319 315 317 318 318 317 317 318 318 316 316 315 316 316 317 317 317 317 317
339 339 340 340 340 339 339 339 339 339 339 340 340 340 342 345 343 342 342 339 344 344 344 345 346 345 346 347 346 347 347 346 348 346 344 344 343 342 341 341 340 339 338 336 336 335 335 334 333 332 331 330 327 328 327 327 322 326 324 329 323 323 325 326 327 324 316 315 316 316 316 316 316 317 316 315 314 315 315 316 317 316 316 316 316
339 340 340 339 339 338 339 339 340 339 340 342 341 343 344 344 344 344 342 341 339 341 342 344 344 343 341 343 342 341 341 343 343 342 342 341 342 341 340 339 338 337 336 334 334 333 332 331 331 330 333 327 324 323 326 326 324 324 320 317 318 323 318 313 322 324 320 315 314 315 316 315 315 315 315 313 314 315 315 315 315 316 316 316 316
337 337 339 340 339 338 339 341 341 342 341 342 342 342 341 342 341 341 341 339 340 338 338 338 340 339 337 337 338 337 338 339 340 340 339 339 339 338 337 337 336 337 336 332 331 328 328 328 330 328 330 328 323 324 323 324 323 323 322 322 320 311 309 311 321 317 317 314 314 315 315 315 315 315 314 314 315 315 315 315 316 316 316 315 315
336 339 340 341 340 339 341 341 342 339 340 341 340 338 339 338 336 334 332 333 332 333 333 335 335 333 332 334 335 336 335 334 336 337 336 336 336 336 337 337 335 334 333 331 329 327 326 326 327 327 326 328 326 323 322 322 322 321 320 318 318 312 309 310 314 312 317 315 315 314 315 315 315 315 315 314 314 314 314 314 315 315 315 315 314
337 340 341 341 341 342 341 337 333 334 338 339 340 337 335 335 337 337 337 335 333 335 339 339 336 333 332 330 332 333 331 332 334 335 335 335 335 336 335 334 333 331 330 328 326 326 325 325 325 324 323 325 324 319 322 321 319 320 318 315 314 314 314 312 309 315 312 312 311 312 313 313 314 313 312 312 312 313 314 314 314 314 314 314 313
339 340 340 340 338 333 332 332 334 334 335 337 339 337 335 336 337 339 339 337 336 337 337 334 333 333 330 327 328 330 328 330 332 332 332 333 333 332 332 331 329 328 325 325 325 325 324 324 324 323 322 321 322 318 316 318 315 314 319 316 314 315 314 315 316 313 309 307 306 311 312 312 311 312 312 311 311 311 312 313 312 313 312 312 313
340 339 338 335 331 331 331 332 332 334 336 336 336 338 339 338 338 338 336 338 336 333 332 331 329 331 326 325 326 328 330 330 330 330 329 329 330 330 329 328 326 324 323 323 323 322 322 322 321 320 319 319 319 317 315 314 317 315 314 314 315 313 313 314 314 313 310 309 305 308 308 311 311 310 311 312 312 312 311 311 311 312 312 312 312
339 339 336 331 331 332 332 334 333 335 337 336 337 338 339 340 338 337 336 334 330 329 328 325 324 328 327 327 326 327 326 326 327 327 327 327 327 327 326 325 325 323 322 322 320 320 320 319 319 319 318 317 317 317 315 315 315 315 314 315 314 313 313 312 312 312 311 312 306 305 307 308 307 308 311 310 311 310 310 310 311 311 311 311 312
339 338 332 331 332 333 334 335 335 336 336 336 338 338 339 339 337 337 336 333 331 328 322 321 322 325 324 325 326 325 325 324 324 325 327 327 327 326 324 324 324 323 321 319 319 318 318 317 317 317 317 316 315 316 315 316 315 313 313 312 310 311 310 309 310 310 310 310 308 305 307 306 304 305 308 311 310 308 308 309 310 310 310 310 311
Wind_Speed
13 14 14 17 15 15 15 14 14 14 14 13 13 13 13 13 14 14 14 13 13 13 13 13 13 14 14 14 14 13 13 13 13 13 13 14 14 14 14 14 14 14 14 13 13 14 13 13 13 13 13 13 13 13 12 11 11 11 12 13 13 13 12 12 11 11 11 11 10 10 10 10 10 10 9 9 9 9 8 8 12 4 7 9 9
16 15 14 16 15 15 15 14 14 14 14 14 14 13 13 13 14 14 14 14 14 14 13 13 13 14 15 14 14 14 13 13 13 13 13 13 13 13 13 13 14 14 13 13 13 11 12 14 13 12 12 12 13 12 12 12 11 11 12 12 11 11 11 11 11 10 9 10 9 9 10 10 10 9 8 8 9 8 8 10 12 8 7 8 8
15 14 14 17 17 16 15 14 14 14 13 13 14 14 13 13 13 14 14 14 14 13 14 14 13 14 15 14 14 14 14 13 13 13 13 13 13 13 13 12 13 13 13 12 12 12 11 10 11 11 11 12 11 11 11 12 11 11 11 11 11 10 10 9 9 9 7 6 6 7 10 10 10 8 8 8 8 8 8 10 12 11 7 8 7
16 13 13 16 16 14 13 14 14 14 13 12 14 13 12 11 13 13 13 14 14 13 14 14 12 13 14 14 14 14 14 13 13 13 12 12 12 12 12 12 12 12 12 11 11 11 11 11 11 11 11 11 10 10 10 10 10 9 10 9 9 9 9 9 8 7 6 4 3 6 5 7 9 9 8 8 7 8 8 8 8 9 7 7 6
15 13 14 15 16 14 13 14 13 14 14 13 14 14 13 12 12 12 13 13 13 13 13 13 13 13 14 15 14 14 14 14 13 12 12 11 10 11 11 12 11 11 11 11 11 10 11 11 11 10 10 10 9 9 9 8 8 7 7 7 7 7 7 7 7 6 4 1 5 10 3 3 6 8 7 6 6 6 6 6 7 7 6 5 4
14 13 14 14 15 15 13 13 14 15 14 14 14 14 14 12 13 12 12 13 13 13 14 14 13 13 14 14 14 14 14 13 13 12 11 10 9 11 12 12 11 10 10 9 10 10 11 11 11 10 10 10 9 9 8 7 6 6 5 5 4 5 5 4 4 4 1 3 9 3 3 3 5 7 6 5 5 5 5 6 6 6 6 4 4
14 12 13 14 13 15 13 13 15 15 15 15 14 14 14 13 13 13 13 13 13 14 14 14 13 13 14 14 14 13 13 13 13 11 11 10 11 11 11 11 10 10 10 11 11 11 12 11 11 10 10 9 9 8 7 6 5 4 3 3 3 2 2 2 1 3 5 9 1 2 3 4 4 6 5 5 5 4 4 5 5 5 4 5 8
12 11 13 13 13 16 14 14 16 16 16 15 14 14 14 14 13 13 13 13 12 13 13 13 13 14 14 14 14 13 13 13 12 12 12 10 9 10 11 11 11 10 10 11 12 12 12 12 11 10 10 9 8 7 6 5 3 3 2 1 1 1 1 1 1 4 7 3 2 3 3 5 5 5 7 4 3 2 2 2 3 4 4 6 4
12 13 13 12 13 20 14 14 14 16 16 15 14 14 14 13 13 13 13 13 13 13 13 13 14 13 13 13 13 13 13 12 12 11 10 11 12 12 11 10 10 10 9 9 10 11 12 12 11 10 9 9 8 6 5 4 3 2 1 0 2 2 2 3 4 7 9 2 1 3 1 5 4 5 6 3 2 2 2 2 8 8 6 5 6
12 12 12 12 13 19 15 13 13 15 16 16 14 14 14 14 13 13 14 13 13 13 13 14 13 13 13 13 13 13 12 12 11 11 11 11 11 11 10 10 10 10 9 11 11 11 11 11 10 10 9 8 7 6 5 4 4 3 2 2 1 3 4 5 7 9 4 1 5 4 6 12 4 5 7 1 1 1 2 4 10 10 8 3 4
12 12 11 11 17 18 14 13 13 14 16 16 14 14 14 13 13 14 13 13 13 13 13 13 13 13 13 13 13 12 12 11 12 12 11 11 10 10 11 10 9 9 9 10 10 10 10 10 9 9 8 8 7 5 4 5 5 5 4 3 2 1 3 7 9 4 1 4 4 5 6 4 3 6 6 1 1 1 1 3 3 2 2 5 3
13 11 11 10 19 16 14 13 13 13 15 15 15 15 14 14 14 13 13 13 13 12 12 12 11 13 13 12 12 12 12 12 11 11 11 10 11 11 10 9 9 9 9 9 9 9 9 9 9 9 8 7 6 5 5 5 5 5 4 3 1 1 3 8 9 4 1 3 7 2 3 3 5 8 3 2 1 2 2 3 2 1 2 4 5
13 12 11 14 16 17 14 13 13 14 14 15 15 15 14 14 14 14 13 11 11 12 13 12 11 10 10 10 11 11 11 11 11 10 10 10 10 10 9 10 9 9 9 9 9 9 8 8 8 8 7 7 6 5 4 4 4 5 4 3 1 1 4 7 6 2 4 2 3 1 3 3 3 8 2 2 3 3 3 3 2 3 3 4 4
13 12 12 14 13 18 15 14 12 12 13 14 14 13 13 13 14 13 11 10 11 12 10 9 10 10 9 10 10 10 10 10 9 9 9 9 9 9 8 9 9 9 9 9 9 9 8 8 7 7 7 6 5 4 4 3 4 4 4 3 1 2 4 8 7 1 1 3 0 3 3 1 5 6 1 4 3 3 3 3 3 5 5 4 5
13 14 13 13 14 16 17 13 12 12 12 12 12 11 12 12 11 11 10 11 12 10 10 11 9 9 9 10 10 9 9 8 8 8 8 9 8 8 8 8 8 8 8 9 9 9 8 8 8 7 6 5 4 4 3 3 3 3 3 3 1 3 6 7 1 2 0 2 1 3 2 2 9 4 2 4 4 4 5 5 5 5 6 6 5
12 13 14 13 14 15 15 15 13 12 11 12 11 11 11 11 11 11 10 10 10 10 10 9 9 9 9 8 8 8 7 6 6 6 6 7 8 8 7 7 7 7 8 8 9 9 8 8 7 7 6 5 4 3 2 2 3 3 3 3 2 2 7 9 4 2 1 1 1 1 1 3 9 4 4 5 6 6 6 7 7 7 7 7 7
12 12 13 14 15 15 14 14 14 13 10 11 11 11 11 11 11 10 10 11 11 11 11 10 10 10 9 8 7 6 6 5 5 5 5 6 6 7 6 6 6 6 6 6 7 7 7 7 7 6 6 5 4 3 3 1 1 2 2 2 2 1 5 8 5 2 3 3 4 2 2 1 9 6 5 7 7 7 7 8 8 8 8 7 7
11 12 12 13 14 15 14 14 14 13 13 11 12 11 12 12 10 10 11 11 10 11 11 10 10 9 9 9 7 6 5 4 4 4 5 5 5 5 5 5 6 5 5 5 6 6 6 6 5 5 5 4 4 3 3 1 1 0 2 2 3 3 5 9 6 2 2 2 4 0 4 10 9 6 6 7 9 8 8 9 9 9 9 8 8
11 12 11 13 14 14 14 13 13 13 13 11 12 13 14 14 12 12 12 11 11 11 11 11 11 10 10 9 8 8 6 5 4 4 4 4 4 4 4 5 5 4 4 5 4 5 5 5 5 4 3 2 3 3 2 1 1 2 3 4 4 5 7 8 6 3 2 4 2 3 2 9 6 7 7 9 9 9 9 9 9 10 9 9 9
10 11 11 11 12 13 13 12 12 13 12 12 12 12 15 14 13 13 12 12 12 11 10 10 10 10 10 9 9 8 8 6 6 6 5 5 5 4 6 5 4 4 4 4 4 4 4 4 3 2 2 2 3 3 3 3 3 2 4 5 7 7 7 5 5 6 4 2 2 5 9 5 7 7 9 10 10 10 10 9 9 9 10 10 10
8 11 11 11 12 12 13 11 12 14 13 12 11 12 13 16 14 14 13 12 11 10 10 10 10 10 10 9 9 6 6 6 7 6 7 5 5 5 5 4 3 3 4 4 4 3 2 1 1 1 2 2 4 6 7 6 5 6 5 7 9 8 3 4 5 4 4 5 2 1 9 5 7 8 10 11 11 11 11 10 8 9 10 10 10
10 10 11 11 12 11 12 12 11 14 13 10 9 10 12 13 13 13 11 12 11 10 9 7 8 7 9 7 4 4 4 4 5 6 5 7 6 5 5 4 3 3 4 3 2 1 1 1 2 2 3 6 7 7 9 9 10 8 8 10 8 6 2 4 4 5 5 5 5 7 5 4 5 8 10 12 12 12 11 10 10 6 7 10 11
10 10 10 13 11 11 12 12 12 13 13 11 9 10 13 11 12 12 10 11 9 8 6 7 6 7 6 5 4 4 4 5 4 4 5 8 7 6 6 5 4 4 3 2 2 1 3 4 3 5 6 8 9 2 3 4 7 12 11 9 6 3 3 4 6 5 5 4 6 9 4 2 5 8 10 12 13 13 12 11 11 5 6 9 11
11 10 11 10 12 11 12 11 12 13 12 10 9 10 10 10 10 10 9 9 8 6 6 5 5 6 5 4 4 4 4 5 8 9 9 7 7 7 6 6 6 5 4 6 7 6 6 8 7 7 10 8 2 2 2 0 2 1 2 3 3 4 4 4 5 5 5 3 3 9 4 5 6 8 10 12 12 13 13 12 10 6 7 8 10
9 9 10 11 12 11 11 11 12 12 12 10 10 9 10 9 9 9 9 8 7 6 6 5 5 6 5 4 5 4 4 5 5 5 4 5 6 7 7 7 6 6 8 4 5 6 8 5 6 8 2 1 1 2 2 2 2 2 2 3 3 4 5 4 4 5 5 5 5 6 2 4 6 7 9 11 12 12 13 10 11 9 7 8 10
9 9 11 12 12 12 12 11 12 13 12 10 9 9 10 9 8 8 8 8 7 6 6 6 6 5 5 5 5 5 5 5 5 4 4 4 5 5 5 5 5 5 6 4 2 1 1 1 2 2 1 2 1 1 2 2 3 2 2 2 3 3 3 3 3 4 4 4 5 7 4 5 6 7 8 10 11 11 11 4 10 10 8 8 9
9 9 10 10 11 12 13 12 12 12 12 11 9 9 9 9 8 8 8 8 7 7 7 6 5 5 5 5 5 5 4 4 4 4 4 4 5 5 5 6 6 5 3 2 2 1 1 1 1 1 1 2 2 2 2 1 3 4 2 3 3 4 4 4 4 4 4 4 6 8 8 8 8 8 9 10 10 10 9 4 6 9 8 7 9
9 10 11 11 11 12 13 12 12 12 11 10 10 9 9 8 8 8 7 7 7 7 6 6 6 6 5 5 5 4 4 4 5 4 4 3 4 4 4 4 4 4 3 2 2 1 1 1 1 2 2 2 2 3 3 3 2 3 4 3 3 3 4 4 4 5 5 3 2 10 12 11 11 11 11 11 10 9 8 6 5 6 8 9 9
9 10 10 10 11 11 12 12 12 13 11 10 11 9 9 8 8 8 7 8 7 7 6 7 7 6 5 5 5 4 4 4 4 4 3 3 4 4 4 4 3 3 3 1 1 1 0 1 2 2 1 3 1 3 4 4 5 3 4 5 5 5 5 5 5 6 5 5 5 10 14 13 13 14 14 14 14 12 10 8 5 5 7 8 10
10 10 9 11 11 12 12 13 13 13 12 11 9 9 9 9 8 8 8 8 7 7 8 6 6 6 6 5 4 3 3 3 4 3 4 4 3 3 3 3 3 3 2 2 1 1 1 1 1 3 4 3 4 4 4 3 5 3 3 6 5 5 4 4 5 5 5 4 4 8 15 15 16 16 16 16 17 16 14 11 9 7 7 9 10
11 10 9 9 11 12 12 12 13 12 11 11 9 9 9 9 9 8 8 8 8 7 7 6 6 5 5 5 4 3 3 3 3 3 3 4 3 3 2 3 3 3 2 2 1 1 1 2 3 4 4 5 4 4 5 5 5 5 4 4 5 4 4 4 4 5 5 5 4 4 12 17 17 17 17 17 17 17 17 16 15 14 13 11 11
11 11 9 9 11 13 12 13 12 12 11 11 9 9 9 9 9 8 8 8 8 7 7 6 6 5 5 5 4 4 3 2 2 3 3 3 3 2 2 2 2 2 1 1 2 2 1 3 3 2 3 4 4 4 5 4 5 5 5 6 5 5 5 5 5 5 5 6 5 5 5 10 17 17 17 18 17 17 18 18 18 19 18 17 14
8 10 9 10 12 13 12 13 12 12 12 11 10 9 8 8 8 8 8 8 8 7 6 6 6 5 5 5 4 4 3 3 3 3 3 3 2 2 2 2 2 2 2 1 2 1 1 1 2 2 3 4 4 5 5 4 4 4 4 6 5 6 5 5 5 6 6 6 6 6 6 6 7 16 17 17 18 18 19 20 20 20 20 21 19
8 8 9 11 11 10 10 11 12 13 12 10 9 9 8 8 7 7 8 8 6 6 6 6 5 5 5 5 5 4 4 3 3 3 3 2 2 2 2 2 2 2 2 1 1 2 2 3 2 2 3 3 4 5 5 5 5 5 5 5 4 5 5 5 5 6 6 7 7 7 7 7 7 6 9 19 18 18 19 18 18 18 19 20 20
8 9 11 12 13 11 10 10 12 13 11 10 10 9 8 7 7 7 7 7 6 6 6 5 6 5 6 5 5 4 4 3 3 3 3 2 3 3 2 2 2 1 1 2 2 2 3 3 4 4 4 3 5 4 5 5 5 5 5 4 5 5 5 5 6 6 6 7 7 8 8 8 8 7 8 5 15 16 15 15 16 18 18 18 18
9 10 11 12 13 12 12 12 14 13 12 10 9 9 9 8 7 7 8 8 7 6 6 5 5 5 5 5 5 4 4 4 4 3 2 2 2 2 2 2 2 1 2 2 1 3 3 3 4 5 4 4 4 5 5 4 4 4 3 3 3 4 4 5 6 7 6 6 7 7 7 8 8 7 8 7 6 12 15 12 12 15 17 18 18
11 11 12 13 13 13 12 13 15 14 13 11 10 9 9 9 9 9 9 8 7 6 6 5 5 5 5 5 5 4 4 4 4 2 2 2 2 2 2 2 1 1 2 2 2 3 3 3 3 4 4 4 3 5 5 4 4 2 2 3 4 4 5 6 5 6 5 7 7 7 8 8 8 8 6 7 7 7 9 10 10 11 15 15 16
10 11 12 13 13 13 12 12 13 12 12 11 11 10 9 8 8 8 8 7 7 6 5 5 5 5 4 4 5 4 3 3 3 3 2 1 2 2 2 2 1 2 2 2 2 3 4 4 3 3 4 4 4 4 5 4 4 2 3 4 4 4 5 5 5 5 6 7 7 7 7 7 7 7 7 7 8 7 7 9 9 8 12 13 14
9 11 13 12 12 12 11 12 12 12 12 11 11 10 9 8 7 7 8 7 6 5 5 5 5 5 5 5 5 4 3 4 3 3 2 2 2 3 2 2 2 2 2 1 3 4 4 4 5 4 2 2 4 3 4 4 2 0 2 4 4 6 6 5 5 6 7 7 7 7 7 7 6 7 7 7 8 8 8 8 8 8 8 12 12
11 11 13 13 13 12 11 11 12 12 10 10 10 9 9 8 9 8 8 8 7 6 6 5 5 5 5 5 5 4 4 4 4 3 3 2 3 3 3 2 2 2 2 3 3 3 4 4 4 5 3 2 4 4 4 4 1 2 4 5 7 7 7 6 6 7 7 8 7 7 7 7 7 6 7 7 8 8 8 8 8 8 8 9 10
12 13 13 13 13 12 12 13 12 13 10 10 9 9 9 9 8 8 8 8 7 6 5 4 5 4 5 5 5 4 5 4 4 4 4 3 4 4 3 3 2 3 3 4 3 4 3 3 3 2 3 2 5 6 6 5 2 4 3 6 7 6 7 6 7 8 8 8 7 7 7 7 6 7 6 6 7 8 8 8 8 8 8 8 8
13 13 14 14 12 13 13 13 12 12 11 10 10 9 9 8 8 8 7 7 7 6 5 4 4 4 4 5 5 4 5 5 4 4 4 4 5 4 3 3 3 4 3 3 4 3 4 3 3 1 3 4 5 7 7 7 1 2 3 6 5 5 6 6 7 9 9 8 7 7 7 7 7 6 6 6 6 7 7 7 7 8 8 8 8
13 14 13 14 13 13 12 12 11 12 10 10 10 9 8 7 7 7 5 6 4 4 6 4 3 3 2 2 2 4 5 5 5 5 4 4 4 4 4 3 3 2 2 3 3 4 4 3 4 3 2 4 6 6 8 9 4 2 1 4 5 6 5 6 7 8 9 9 7 8 7 7 8 7 7 7 7 7 7 8 8 8 9 9 9
11 12 13 14 11 12 13 13 12 10 9 10 9 10 9 7 7 8 8 7 6 5 5 4 4 4 3 3 3 3 3 5 5 5 5 4 4 3 3 3 3 3 3 3 4 4 4 4 4 3 2 3 5 7 8 9 7 5 3 2 2 3 6 5 4 7 8 11 9 9 7 7 7 8 7 8 8 7 7 8 8 8 8 8 8
11 12 11 11 9 13 13 13 10 8 10 10 10 9 8 7 6 6 6 6 6 6 6 4 4 4 3 4 3 2 2 5 5 5 6 6 5 4 4 5 4 3 3 3 4 5 4 4 4 4 5 3 5 5 7 8 10 9 6 2 3 4 4 3 2 7 5 7 9 8 7 7 7 7 6 6 6 6 6 7 7 7 8 8 8
12 11 11 11 11 12 13 12 9 8 10 13 14 10 8 8 9 9 9 8 8 7 7 7 6 5 5 4 4 4 3 5 5 6 6 5 6 5 4 4 3 3 4 4 4 4 6 6 5 4 5 5 3 4 5 6 8 10 10 9 7 5 3 2 5 5 5 7 7 8 7 7 6 6 6 7 8 7 7 7 8 8 8 8 8
12 9 10 11 9 8 12 10 10 7 9 10 14 11 13 12 12 11 10 10 9 7 5 5 6 6 4 5 4 4 6 6 5 6 6 6 5 5 5 4 4 4 5 5 5 5 5 6 5 6 5 5 4 5 4 5 6 8 8 9 9 7 6 4 3 3 5 6 6 6 7 7 7 7 6 8 8 7 8 7 8 8 8 8 8
10 9 7 8 8 8 13 11 10 12 12 13 14 12 13 12 12 11 10 10 8 7 7 7 8 6 5 4 5 4 6 5 4 6 6 6 6 6 6 5 5 5 5 6 6 5 5 6 6 6 6 6 6 5 6 5 5 6 5 6 7 7 7 8 6 5 3 3 5 6 6 6 7 7 7 7 8 8 8 8 8 8 8 8 8
9 8 9 7 12 13 12 17 14 13 11 16 14 13 12 12 11 9 9 6 8 8 9 9 8 4 6 4 4 5 6 5 5 6 6 6 5 6 6 6 6 6 6 6 7 7 8 7 7 7 7 7 6 6 6 7 6 5 4 5 5 5 6 6 5 6 4 2 4 3 3 3 5 6 6 5 5 6 7 8 8 8 8 8 9
7 7 9 15 13 16 19 14 12 11 9 14 13 13 14 12 11 12 11 10 9 8 8 10 10 6 6 5 4 5 5 6 6 6 6 6 6 6 7 8 7 7 7 7 8 8 7 8 8 8 8 8 7 8 8 7 7 6 6 4 4 4 4 5 6 4 4 4 4 4 3 2 2 3 3 5 4 6 5 6 6 7 8 8 9
9 9 12 13 15 18 18 16 14 12 13 15 15 15 13 12 12 12 12 13 12 10 8 10 9 6 7 7 6 5 4 6 5 5 6 6 6 6 7 7 7 7 7 7 6 6 6 7 8 9 9 9 8 9 9 8 7 8 8 7 7 7 6 7 6 5 5 5 3 4 3 2 3 4 4 2 3 6 6 7 7 7 8 9 8
Wind_Direction
159 149 147 141 151 150 156 159 160 159 154 150 141 138 136 135 134 134 133 132 131 128 125 126 127 123 118 117 116 113 111 111 110 107 104 103 103 101 100 100 99 98 94 91 99 106 102 100 101 98 95 91 90 86 84 87 87 82 75 83 80 73 79 76 77 72 67 68 71 75 73 69 70 65 62 60 56 51 35 2 357 322 51 63 48
154 149 145 151 148 149 156 159 162 159 154 150 143 139 140 139 138 136 135 135 133 131 130 130 129 124 120 118 117 116 116 114 109 107 106 106 104 102 99 98 98 99 98 99 95 94 102 110 105 97 93 92 90 87 86 86 86 81 76 70 74 77 80 77 68 68 71 76 78 85 83 77 68 64 63 59 57 51 37 18 7 359 71 64 60
147 148 147 153 148 149 157 159 162 158 155 151 146 143 143 141 140 138 138 137 135 134 133 132 131 126 122 120 119 119 117 114 113 111 111 108 104 101 99 99 99 99 98 97 96 96 93 91 97 100 94 92 91 89 87 84 82 75 74 75 77 78 77 69 68 66 69 73 92 109 110 95 78 72 67 63 59 53 49 41 26 11 61 38 49
145 147 150 140 145 148 152 159 161 157 155 153 145 144 143 142 142 141 140 138 137 135 134 133 131 126 122 121 122 121 118 117 117 115 111 107 103 105 104 99 98 97 98 100 100 100 101 103 107 104 99 98 93 87 87 85 82 78 73 73 75 78 78 75 72 71 64 58 293 232 162 127 106 79 68 67 60 59 56 55 50 46 50 55 51
144 145 146 151 152 148 154 158 161 157 156 152 149 146 145 145 144 143 142 140 138 137 134 133 132 125 123 124 123 122 120 119 118 114 110 109 112 110 106 100 97 98 100 100 101 104 108 110 107 106 107 99 93 88 85 85 81 80 74 70 70 73 72 70 72 67 63 18 274 263 94 90 101 85 81 69 65 58 56 56 57 51 49 53 54
143 144 145 160 161 152 155 158 162 156 156 155 153 149 148 148 149 147 144 141 139 138 137 136 132 128 126 125 125 125 123 121 118 114 113 110 104 105 104 100 98 102 99 99 103 109 112 112 111 110 108 102 93 90 87 87 84 81 77 76 82 75 72 72 64 52 17 259 247 249 74 70 92 105 72 74 70 61 59 69 58 47 45 20 16
142 140 146 159 160 157 154 158 162 157 154 157 155 151 151 152 150 148 145 143 142 140 138 137 135 131 128 128 126 124 123 121 118 117 116 110 109 109 104 94 91 91 97 105 110 112 113 112 111 109 105 99 94 90 89 86 85 79 86 92 89 99 96 92 77 5 288 259 177 60 76 81 89 99 102 88 81 64 80 61 43 42 38 2 354
141 144 150 159 165 147 154 160 163 157 155 157 155 153 154 151 149 148 147 147 144 142 140 139 137 133 131 129 127 125 123 123 121 118 114 112 108 104 96 93 90 89 104 112 113 115 115 114 110 105 100 96 94 92 89 84 84 90 93 109 114 137 205 213 291 249 274 281 52 47 73 69 85 88 108 98 69 67 66 82 85 107 43 25 5
147 147 154 154 153 145 154 162 163 158 154 157 156 156 154 149 149 150 151 147 146 144 143 142 139 134 130 128 127 127 128 125 119 116 113 106 102 97 94 93 95 97 96 97 105 111 112 110 107 101 99 95 95 94 88 80 66 55 50 42 277 240 255 253 248 264 249 70 61 92 33 110 88 90 94 73 63 65 32 314 176 135 93 40 345
147 151 151 156 158 144 155 159 163 158 155 158 157 156 153 151 152 152 150 149 148 146 144 142 139 135 131 131 131 130 127 123 121 115 111 109 107 104 103 104 107 108 110 113 114 112 110 109 105 103 101 98 95 89 78 63 53 42 35 347 264 260 248 250 246 249 287 173 96 58 31 344 55 72 82 82 125 66 13 331 9 23 18 6 17
150 148 154 156 150 139 152 159 161 159 157 158 159 156 153 154 153 151 149 151 148 146 145 144 141 138 134 133 134 131 128 127 123 118 113 108 106 104 100 96 95 105 111 114 115 113 112 105 104 104 102 101 97 90 71 55 46 34 16 3 330 280 265 243 233 220 118 77 87 100 109 280 13 61 99 102 169 106 239 324 348 10 349 353 348
150 148 151 147 128 139 148 158 161 159 159 158 159 157 156 156 154 150 151 150 148 147 147 143 140 138 135 135 135 133 130 128 125 121 117 114 111 107 104 99 99 102 104 112 112 113 108 103 102 104 102 100 94 82 67 57 45 39 28 24 58 280 240 248 248 77 139 74 71 333 60 198 67 89 119 176 254 248 278 281 264 280 338 334 332
150 153 151 133 145 138 154 156 162 162 160 158 159 159 158 157 154 153 151 149 151 150 147 142 136 135 136 136 136 133 128 126 126 123 121 120 116 109 109 105 104 102 106 112 116 112 108 106 105 103 103 99 93 85 72 57 46 39 40 67 145 250 251 266 265 83 74 82 86 134 106 43 98 98 190 218 238 252 259 265 254 272 299 318 319
152 151 152 147 153 148 152 158 162 161 160 158 160 161 159 157 154 152 146 147 150 147 138 132 132 133 133 133 131 127 125 125 129 125 122 121 120 116 113 110 106 102 104 111 115 115 112 109 107 101 97 94 94 94 80 62 46 42 40 49 157 229 246 240 278 116 48 83 318 38 58 64 78 108 222 245 219 244 260 263 268 282 294 301 293
154 150 153 153 151 157 155 155 160 162 157 157 160 157 154 153 150 146 144 146 147 136 134 134 128 130 131 128 128 126 126 128 127 130 126 124 122 116 116 114 107 104 105 107 113 115 113 111 107 106 104 103 91 77 66 52 49 40 53 41 42 261 260 273 222 51 242 34 89 234 141 137 101 141 229 246 249 251 266 272 278 281 287 287 284
152 150 154 155 159 158 159 156 158 161 157 155 158 153 152 148 145 143 143 143 136 136 135 127 125 128 122 119 122 125 129 129 126 127 132 133 129 129 120 113 112 105 104 106 109 111 110 107 109 109 109 106 100 93 73 54 23 25 12 28 357 269 281 295 308 1 340 246 128 293 314 101 122 131 238 259 260 264 266 275 278 280 281 280 277
152 156 158 158 160 160 163 161 160 162 155 151 152 151 148 143 140 139 138 136 137 139 133 129 126 122 114 116 117 123 113 130 134 122 133 134 137 131 119 114 113 104 97 99 101 103 103 102 101 105 108 108 111 105 103 72 26 354 353 303 335 258 271 284 304 322 333 11 326 303 284 50 133 160 226 251 263 263 267 269 273 275 277 278 282
156 162 161 160 162 165 163 167 156 168 165 156 151 150 147 140 137 135 137 137 137 137 131 124 122 119 121 113 112 111 107 121 147 145 142 148 142 135 120 119 114 98 94 96 93 93 96 93 94 99 102 114 110 113 114 74 352 81 279 272 239 262 267 264 276 309 305 336 274 312 283 90 133 178 218 247 259 264 266 267 270 272 276 277 281
161 169 165 162 165 166 165 164 163 170 168 172 166 156 152 147 139 140 139 138 139 137 131 126 121 117 114 112 112 114 116 122 134 148 145 147 150 146 135 128 109 101 95 89 91 88 89 91 89 93 109 123 129 136 164 168 65 266 272 267 255 243 254 252 269 318 302 243 269 290 68 110 142 184 223 240 250 261 267 271 273 277 280 284 285
165 172 166 169 167 169 165 166 169 169 171 173 169 162 153 151 146 143 142 142 142 133 131 127 123 122 117 121 125 130 135 128 141 144 143 145 167 184 134 124 107 99 92 84 81 80 80 85 97 113 140 174 178 179 175 176 189 223 234 243 246 241 238 255 325 304 317 322 322 290 101 159 168 207 227 236 246 253 264 269 273 277 281 284 286
171 174 168 170 169 170 166 168 171 170 172 168 168 164 155 153 152 146 145 141 139 135 128 130 131 127 133 132 164 154 128 134 166 129 155 151 132 142 152 132 120 109 97 85 73 65 66 77 96 173 210 211 225 194 169 175 179 193 206 226 228 235 263 306 303 301 287 310 258 321 115 166 198 217 232 239 244 251 254 261 269 264 266 270 275
171 171 173 170 168 169 174 168 173 171 169 169 171 162 159 166 164 157 153 146 145 144 155 145 147 133 127 158 147 132 138 121 113 143 136 142 153 152 154 155 137 123 100 96 79 6 325 323 285 241 241 235 235 212 167 168 178 185 197 212 222 247 240 281 295 300 316 299 304 86 125 153 235 241 243 246 248 251 253 256 260 266 290 283 275
169 168 171 172 171 171 178 171 171 171 167 172 169 165 166 168 166 156 148 153 153 169 153 160 152 148 155 137 143 138 136 122 117 102 106 82 119 155 153 158 149 126 137 149 189 222 261 252 249 249 238 229 228 213 237 172 168 185 195 205 241 261 297 281 283 289 302 349 311 74 71 223 259 257 258 258 256 254 253 252 258 235 256 280 284
167 168 166 170 174 175 177 170 173 171 173 172 173 170 170 171 170 159 158 154 164 166 158 161 152 140 137 140 137 133 133 110 116 138 147 147 135 151 153 150 159 169 191 201 182 199 224 222 215 231 226 225 244 241 273 202 302 242 230 278 294 298 283 288 301 311 308 324 354 57 12 297 278 272 271 269 266 262 261 255 255 240 253 264 280
165 159 162 170 175 173 174 173 173 172 179 174 173 173 170 169 170 160 163 159 158 158 161 154 147 149 142 150 140 153 159 140 151 155 153 148 146 149 169 174 168 160 198 195 196 156 209 191 186 209 279 293 293 349 297 321 289 296 299 295 303 305 303 306 307 306 311 308 63 69 18 311 296 286 281 280 279 280 278 304 309 268 236 247 263
157 163 163 168 175 173 176 172 175 175 182 178 179 166 168 168 167 167 163 162 156 164 163 157 153 153 152 143 145 157 159 148 148 141 146 152 156 151 157 153 162 153 189 186 157 189 218 260 302 315 248 263 251 271 321 308 304 297 310 317 312 304 309 313 319 313 311 319 94 77 40 351 327 320 311 302 300 300 303 271 259 264 247 249 264
169 162 162 165 174 176 177 173 175 176 181 183 176 173 176 169 168 169 168 162 155 166 162 156 149 152 151 152 163 161 157 149 149 161 163 170 150 157 150 158 164 162 170 157 124 176 260 252 256 257 294 301 311 305 267 286 324 316 339 332 340 321 327 324 327 323 329 317 79 70 61 21 8 360 350 338 329 324 319 286 254 264 254 263 268
169 156 172 166 173 177 176 174 177 178 180 183 174 182 173 170 168 163 174 152 154 168 162 155 145 159 160 166 173 170 162 155 159 165 167 164 159 148 159 154 153 146 146 173 174 151 235 305 336 313 303 303 332 330 324 327 327 331 330 319 313 330 329 330 331 332 319 334 349 82 60 39 34 29 27 19 14 0 349 338 278 261 272 282 284
167 161 167 168 171 176 172 181 176 181 179 181 179 182 171 169 168 177 163 153 166 165 160 152 158 155 167 167 184 182 168 159 158 154 169 162 155 164 164 152 156 130 150 152 173 158 48 351 348 302 297 321 333 323 336 353 311 343 326 326 345 345 351 337 342 327 337 339 329 76 71 54 51 47 38 36 33 27 18 15 354 311 294 292 287
168 159 170 165 169 176 177 182 180 182 177 183 182 176 173 170 172 172 158 162 164 162 156 164 161 163 162 177 180 196 170 161 153 151 167 165 165 167 163 152 138 133 168 161 117 91 34 38 315 321 344 332 350 7 324 324 311 323 7 337 356 350 343 346 339 340 348 340 0 82 73 66 61 52 45 40 37 34 32 25 18 346 321 308 307
168 162 163 177 167 176 179 183 181 189 175 185 181 174 174 175 171 170 171 168 157 162 170 166 168 164 155 163 182 178 175 167 158 168 173 182 187 184 177 156 151 139 182 120 103 71 61 34 14 4 2 348 349 344 326 336 337 345 356 352 0 343 357 357 353 357 356 360 1 69 78 73 67 56 49 44 40 38 35 33 29 24 16 7 350
169 163 166 167 167 178 180 182 181 188 178 183 175 174 175 170 169 173 172 161 157 166 171 166 168 155 152 161 168 180 186 163 172 179 189 199 198 196 175 180 132 160 125 101 91 63 58 60 35 25 2 338 336 341 330 344 336 358 339 10 2 352 7 7 8 17 19 21 24 20 71 94 77 71 61 48 47 43 39 37 35 33 29 25 18
164 163 164 163 170 178 179 181 184 186 186 181 174 174 173 170 173 174 164 160 164 168 172 171 164 154 154 159 164 170 191 183 180 195 201 200 191 193 175 145 153 102 104 65 69 111 87 92 88 38 360 342 354 349 342 337 337 1 359 6 359 11 13 20 25 32 35 35 29 35 36 33 86 91 75 65 49 37 37 34 31 27 25 23 22
158 163 167 167 171 179 180 177 184 183 188 178 172 173 170 170 170 168 160 165 165 174 172 168 162 159 152 158 169 169 191 193 188 185 210 189 178 183 151 138 121 125 120 152 112 54 45 33 25 30 25 358 0 354 344 347 347 351 17 355 18 22 20 38 39 48 40 41 40 35 28 30 21 16 81 78 63 45 36 37 30 26 26 19 18
159 168 180 175 174 175 176 179 183 182 180 172 169 172 167 164 166 165 165 166 166 178 169 167 170 163 159 157 164 171 191 198 203 202 201 173 166 148 156 144 122 134 120 68 18 66 42 24 22 4 21 18 356 358 349 346 345 350 8 4 12 39 44 41 49 45 58 57 51 45 38 33 22 23 8 30 81 60 46 36 38 33 27 23 18
183 179 180 182 176 177 178 179 180 179 176 165 168 170 166 172 166 163 164 167 169 173 171 174 173 163 164 161 164 174 192 197 202 197 177 195 160 140 143 115 134 117 69 66 0 53 46 28 31 8 10 12 7 356 344 342 337 356 359 19 42 44 55 62 59 54 40 47 55 50 45 37 26 26 9 11 12 79 54 29 38 41 32 24 20
189 178 185 185 179 178 178 179 180 176 169 166 170 175 175 175 171 165 163 168 174 171 172 175 173 169 166 168 161 177 189 188 192 169 186 196 146 149 128 137 138 89 87 77 48 35 36 29 37 12 6 1 9 2 335 339 335 353 48 55 53 54 49 52 52 58 57 54 45 48 46 32 32 15 24 11 10 358 51 27 18 49 43 28 19
191 174 182 185 181 178 178 178 176 176 171 168 180 180 177 170 169 164 162 167 167 170 170 175 167 167 168 165 165 171 186 177 179 168 195 191 145 137 120 133 107 98 99 81 55 44 36 13 15 9 2 0 15 1 342 348 331 352 66 61 52 56 74 70 65 57 55 49 45 43 39 40 28 24 18 23 10 19 7 7 8 10 51 31 20
188 179 179 184 183 180 175 172 173 172 165 172 176 174 162 158 147 154 156 162 165 167 175 177 174 170 171 166 170 170 178 174 165 169 175 180 151 132 130 113 109 94 88 80 64 48 27 25 3 351 354 32 12 12 347 327 323 35 113 98 76 74 64 61 55 57 57 47 45 37 34 31 33 28 23 22 23 12 9 7 0 0 8 27 14
186 184 180 180 180 177 175 172 175 177 168 172 169 165 162 160 158 159 165 169 171 174 188 183 176 182 167 172 175 180 164 166 167 155 162 159 138 128 116 116 85 71 48 44 26 39 17 8 9 352 344 68 37 4 5 331 289 116 113 88 87 83 72 61 56 54 52 44 39 34 31 27 27 27 28 26 27 15 8 6 6 1 354 3 5
187 185 185 186 182 177 172 171 172 175 172 170 173 169 168 167 167 173 170 171 172 177 184 184 193 180 177 176 181 176 166 153 154 145 156 149 135 122 120 105 82 61 47 50 40 30 11 1 336 25 347 39 38 9 12 321 301 134 121 123 121 102 86 64 57 63 56 44 33 40 38 30 27 25 26 32 25 22 11 8 7 2 357 354 352
189 188 189 187 181 174 173 167 170 174 172 173 173 176 177 174 173 171 171 166 167 178 174 176 191 177 191 181 175 170 139 149 139 142 151 147 139 129 116 82 65 60 49 49 37 31 16 9 325 143 45 45 53 19 7 324 92 342 164 146 137 110 91 78 70 57 52 46 45 46 47 40 31 31 26 25 29 27 20 13 10 6 1 356 352
190 191 189 187 182 177 173 166 169 170 171 172 175 177 170 160 164 144 151 160 161 166 169 151 153 141 186 176 152 127 136 132 136 136 139 130 122 113 98 79 52 42 49 43 34 29 26 15 6 343 119 85 72 39 26 7 2 338 325 197 146 160 136 128 97 76 63 46 46 49 45 41 39 35 32 27 26 24 21 19 10 9 4 360 354
189 192 190 188 180 180 173 166 159 160 163 172 167 161 151 148 160 162 170 173 161 145 134 147 132 146 157 120 74 64 125 123 129 130 119 107 102 95 82 70 57 38 31 42 42 45 41 32 25 21 329 89 61 56 35 25 17 326 185 17 107 265 148 90 86 98 85 63 47 50 43 45 39 38 41 32 25 17 13 19 5 8 3 357 354
193 195 193 185 178 178 165 160 149 155 166 143 140 134 145 159 150 144 142 146 146 154 153 135 141 122 106 79 97 105 100 96 98 102 101 92 83 83 85 86 72 47 44 57 57 46 47 50 45 41 25 37 90 77 55 35 34 22 4 214 174 102 42 64 143 84 65 71 63 55 51 41 41 36 33 30 17 11 6 7 5 2 0 355 354
199 196 192 190 177 174 160 146 139 127 142 148 144 145 143 142 153 153 156 162 160 167 164 155 159 151 113 94 69 73 76 81 86 86 86 93 90 88 90 88 77 67 66 68 71 73 50 53 42 45 54 33 61 107 93 63 49 39 45 50 21 28 26 3 261 122 112 79 76 63 53 46 40 40 34 28 24 19 13 9 9 4 2 359 354
200 194 190 187 171 159 138 115 112 123 139 157 163 157 159 165 177 176 176 175 171 168 156 144 133 100 76 75 59 55 70 65 76 91 93 92 93 85 81 80 81 88 79 77 76 64 60 48 48 50 46 47 56 79 77 106 87 62 59 52 52 43 32 349 62 185 141 97 68 58 55 50 45 42 36 34 27 22 16 8 6 2 0 1 354
196 186 172 177 136 107 103 110 127 166 170 165 172 168 166 172 178 182 179 181 174 144 125 111 107 113 111 109 102 83 84 81 89 93 96 92 88 89 87 84 86 81 86 81 74 69 72 65 55 56 53 51 47 65 71 51 68 73 61 77 74 61 48 49 22 18 50 88 86 93 74 59 57 42 31 26 25 19 18 9 5 359 358 358 353
194 172 186 117 98 103 117 144 164 172 169 164 169 170 171 175 176 169 170 156 134 132 133 125 121 110 93 98 93 95 88 87 83 83 82 88 94 93 90 90 88 88 87 84 76 70 63 60 59 57 58 59 56 61 67 62 59 69 91 82 76 73 73 59 50 35 24 96 93 64 68 92 74 48 23 11 13 11 11 11 3 358 359 358 353
178 162 113 120 136 149 158 158 153 167 164 162 169 176 176 175 170 171 167 143 129 130 130 121 120 111 126 139 123 101 108 99 83 82 85 92 95 99 98 93 89 85 83 83 81 73 68 65 61 63 65 70 64 60 62 66 66 59 54 56 74 78 69 62 48 47 63 35 50 48 52 37 30 61 24 5 354 13 359 12 360 1 357 354 351
170 140 130 147 159 161 155 158 164 168 166 168 173 174 171 171 169 167 159 146 142 141 133 127 127 131 147 146 126 121 112 99 98 93 96 95 92 91 94 95 93 93 90 86 78 78 76 76 72 70 66 68 71 70 69 67 68 64 60 59 59 51 47 50 37 37 36 35 41 51 39 30 38 51 42 23 343 12 8 15 12 6 359 357 351